Ft. Stewart, GA

10:08 AM EDT on July 22, 2017 (GMT -0400)
Wright Army Air Field

Weather History for KLHW - October, 2013

Change the Weather History Date:

Monday, October 21, 2013

  Actual Average Record
Temperature  
Mean Temperature 66 °F -  
Max Temperature 70 °F 78 °F 87 °F (1984)
Min Temperature 62 °F 54 °F 38 °F (1964)
Cooling Degree Days 2    
Growing Degree Days 16 (Base 50)    
Moisture  
Dew Point 63 °F    
Average Humidity 88    
Maximum Humidity 100    
Minimum Humidity 73    
Precipitation  
Precipitation 0.00 in - - ()
Sea Level Pressure  
Sea Level Pressure 30.05 in    
Wind  
Wind Speed 4 mph (NNE)    
Max Wind Speed 8 mph    
Max Gust Speed -    
Visibility 10 miles    
Events      
Averages and records for this station are not official NWS values.
T = Trace of Precipitation, MM = Missing Value Source: NWS Daily Summary

Daily Weather History Graph

Daily Weather History Graph

Search for Another Location

Airport or City:

Trip Planner

Search our weather history database for the weather conditions in past years. The results will help you decide how hot, cold, wet, or windy it might be!

Date:

Astronomy

Oct. 21, 2013 Rise Set
Actual Time 7:34 AM EDT 6:46 PM EDT
Civil Twilight 7:09 AM EDT 7:11 PM EDT
Nautical Twilight 6:40 AM EDT 7:40 PM EDT
Astronomical Twilight 6:12 AM EDT 8:08 PM EDT
Moon 8:47 PM EDT (10/21) 9:59 AM EDT (10/21)
Length of Visible Light 12h 02m
Length of Day
11h 12m
Waning Gibbous, 93% of the Moon is Illuminated
Oct 21
Waning Gibbous
Oct 26
Last Quarter
Nov 3
New
Nov 10
First Quarter
Nov 17
Full

Hourly Weather History & Observations

Time (EDT) Temp. Dew Point Humidity Pressure Visibility Wind Dir Wind Speed Gust Speed Precip Events Conditions
12:58 AM 63.1 °F 63.1 °F 100% 30.03 in 10.0 mi NNE 3.5 mph - N/A   Mostly Cloudy
1:58 AM 63.1 °F 63.1 °F 100% 30.03 in 10.0 mi NNE 4.6 mph - N/A   Mostly Cloudy
2:58 AM 63.0 °F 63.0 °F 100% 30.03 in 10.0 mi NNE 2.3 mph - N/A   Overcast
3:58 AM 62.4 °F 62.4 °F 100% 30.03 in 10.0 mi NNE 4.6 mph - N/A   Overcast
4:58 AM 62.2 °F 62.2 °F 100% 30.05 in 10.0 mi North 3.5 mph - N/A   Overcast
5:58 AM 62.2 °F 62.2 °F 100% 30.06 in 10.0 mi NE 3.5 mph - N/A   Overcast
6:53 AM 62.6 °F 62.6 °F 100% 30.05 in 10.0 mi NE 3.5 mph - N/A   Overcast
6:58 AM 62.2 °F 62.2 °F 100% 30.06 in 10.0 mi NE 3.5 mph - N/A   Overcast
7:58 AM 62.6 °F 62.2 °F 99% 30.06 in 10.0 mi NNE 4.6 mph - N/A   Overcast
8:43 AM 64.4 °F 62.6 °F 94% 30.07 in 10.0 mi NNE 4.6 mph - N/A   Overcast
8:58 AM 64.0 °F 62.2 °F 94% 30.08 in 10.0 mi NE 4.6 mph - N/A   Mostly Cloudy
9:58 AM 65.7 °F 62.2 °F 89% 30.09 in 10.0 mi NE 4.6 mph - N/A   Mostly Cloudy
10:58 AM 67.6 °F 62.8 °F 84% 30.09 in 10.0 mi North 8.1 mph - N/A   Mostly Cloudy
11:08 AM 66.2 °F 62.6 °F 88% 30.08 in 10.0 mi North 5.8 mph - N/A   Mostly Cloudy
11:33 AM 68.0 °F 62.6 °F 83% 30.08 in 10.0 mi ENE 5.8 mph - N/A   Mostly Cloudy
11:43 AM 68.0 °F 62.6 °F 83% 30.08 in 10.0 mi NE 4.6 mph - N/A   Mostly Cloudy
11:48 AM 68.0 °F 62.6 °F 83% 30.08 in 10.0 mi NE 5.8 mph - N/A   Mostly Cloudy
11:58 AM 68.7 °F 62.2 °F 80% 30.10 in 10.0 mi ENE 4.6 mph - N/A   Overcast
12:58 PM 69.6 °F 62.4 °F 78% 30.07 in 10.0 mi ENE 4.6 mph - N/A   Overcast
1:41 PM 69.8 °F 62.6 °F 78% 30.06 in 10.0 mi North 4.6 mph - N/A   Light Drizzle
1:56 PM 69.8 °F 62.6 °F 78% 30.06 in 10.0 mi NNE 4.6 mph - N/A   Overcast
1:58 PM 69.8 °F 62.6 °F 78% 30.07 in 10.0 mi NNE 3.5 mph - 0.00 in   Overcast
2:13 PM 69.8 °F 62.6 °F 78% 30.05 in 10.0 mi North 5.8 mph - N/A   Overcast
2:23 PM 69.8 °F 62.6 °F 78% 30.05 in 10.0 mi North 3.5 mph - N/A   Light Drizzle
2:49 PM 69.8 °F 62.6 °F 78% 30.04 in 10.0 mi NNE 3.5 mph - N/A   Overcast
2:58 PM 69.8 °F 63.5 °F 80% 30.04 in 10.0 mi NNE 4.6 mph - 0.00 in   Overcast
3:18 PM 71.6 °F 62.6 °F 73% 30.03 in 10.0 mi NNE 6.9 mph - N/A   Overcast
3:58 PM 70.9 °F 61.7 °F 73% 30.03 in 10.0 mi NNE 3.5 mph - N/A   Mostly Cloudy
4:33 PM 69.8 °F 62.6 °F 78% 30.02 in 10.0 mi North 4.6 mph - N/A   Overcast
4:58 PM 70.2 °F 62.2 °F 76% 30.03 in 10.0 mi North 3.5 mph - N/A   Mostly Cloudy
5:08 PM 69.8 °F 62.6 °F 78% 30.01 in 10.0 mi NE 3.5 mph - N/A   Overcast
5:58 PM 69.4 °F 62.8 °F 79% 30.03 in 10.0 mi North 4.6 mph - N/A   Mostly Cloudy
6:58 PM 67.5 °F 63.0 °F 85% 30.02 in 10.0 mi East 3.5 mph - N/A   Overcast
7:58 PM 65.3 °F 63.7 °F 94% 30.01 in 10.0 mi East 5.8 mph - N/A   Mostly Cloudy
8:58 PM 65.1 °F 63.7 °F 95% 30.02 in 10.0 mi Variable 2.3 mph - N/A   Partly Cloudy
9:58 PM 64.0 °F 64.0 °F 100% 30.03 in 10.0 mi Calm Calm - N/A   Clear
10:58 PM 63.9 °F 63.9 °F 100% 30.03 in 10.0 mi North 1.2 mph - N/A   Mostly Cloudy
11:18 PM 62.6 °F 62.6 °F 100% 30.03 in 7.0 mi NNW 2.3 mph - N/A   Overcast
11:38 PM 64.4 °F 64.4 °F 100% 30.02 in 10.0 mi Calm Calm - N/A   Mostly Cloudy
11:58 PM 63.5 °F 63.5 °F 100% 30.03 in 10.0 mi Calm Calm - N/A   Mostly Cloudy